This demonstration page uses our WeatherBlox Daily Observations layout. Learn more.

Left ArrowRight Arrow

36.17497, -115.13722

Hourly Observations for February 2, 2020

Temp ( °F °C ) Dew Point ( °F °C ) Humidity (%) Winds ( mph kmh ) Pressure ( in mb ) Visibility ( mi km ) Precip ( " mm )
12:53 am 00:53 Clear 48 8.9 29 -1.7 48 48 NW 6 9 30.18 1022 10 16.0934 0 0
1:53 am 01:53 Clear 47 8.3 29 -1.7 50 50 WNW 5 7 30.16 1021 10 16.0934 0 0
2:53 am 02:53 Clear 46 7.8 29 -1.7 51 51 Calm 30.13 1020 10 16.0934 0 0
3:53 am 03:53 Clear 44 6.7 28 -2.2 53 53 Calm 30.1 1019 10 16.0934 0 0
4:53 am 04:53 Clear 42 5.6 27 -2.8 55 55 NW 5 7 30.09 1019 10 16.0934 0 0
5:53 am 05:53 Clear 42 5.6 28 -2.2 58 58 NW 6 9 30.09 1019 10 16.0934 0 0
6:53 am 06:53 Sunny 43 6.1 28 -2.2 56 56 WNW 5 7 30.08 1019 10 16.0934 0 0
7:53 am 07:53 Sunny 46 7.8 30 -1.1 54 54 Calm 30.06 1018 10 16.0934 0 0
8:53 am 08:53 Sunny 51 10.6 29 -1.7 43 43 Calm 30.04 1017 10 16.0934 0 0
9:53 am 09:53 Sunny 56 13.3 28 -2.2 34 34 ESE 3 6 30.01 1016 10 16.0934 0 0
10:53 am 10:53 Sunny 58 14.4 27 -2.8 31 31 SE 8 13 29.96 1015 10 16.0934 0 0
11:53 am 11:53 Sunny 62 16.7 29 -1.7 29 29 E 7 11 29.89 1012 10 16.0934 0 0
12:53 pm 12:53 Sunny 64 17.8 29 -1.7 27 27 E 7 11 29.82 1010 10 16.0934 0 0
1:53 pm 13:53 Sunny 68 20 30 -1.1 24 24 ENE 10 17 29.75 1007 10 16.0934 0 0
2:53 pm 14:53 Sunny 70 21.1 30 -1.1 23 23 ENE 5 7 29.71 1006 10 16.0934 0 0
3:43 pm 15:43 Sunny 76 24.4 16 -8.9 10 10 SW 20 31 29.52 1000 10 16.0934 0 0
3:53 pm 15:53 Sunny 75 23.9 18 -7.8 11 11 S 16 26 29.64 1004 10 16.0934 0 0
4:08 pm 16:08 Sunny 74 23.3 21 -6.1 14 14 SSE 14 22 29.51 999 10 16.0934 0 0
4:53 pm 16:53 Sunny 72 22.2 19 -7.2 13 13 SSW 24 39 29.58 1002 10 16.0934 0 0
5:53 pm 17:53 Clear 70 21.1 23 -5 17 17 S 24 39 29.56 1001 10 16.0934 0 0
6:53 pm 18:53 Clear 69 20.6 21 -6.1 16 16 S 28 44 29.51 999 10 16.0934 0 0
7:53 pm 19:53 Clear 68 20 18 -7.8 15 15 SW 24 39 29.48 998 9 14.48406 0 0
8:53 pm 20:53 Clear 66 18.9 18 -7.8 16 16 W 15 24 29.52 1000 10 16.0934 0 0
9:53 pm 21:53 Clear 61 16.1 22 -5.6 22 22 NNW 9 15 29.57 1001 10 16.0934 0 0
10:35 pm 22:35 Clear 61 16.1 21 -6.1 21 21 WNW 29 46 29.52 1000 10 16.0934 0 0
10:53 pm 22:53 Clear 56 13.3 17 -8.3 22 22 WNW 30 48 29.62 1003 10 16.0934 0 0
11:53 pm 23:53 Partly Cloudy 52 11.1 10 -12.2 18 18 NW 38 61 29.64 1004 10 16.0934 0 0

Powered by AerisWeather